Location: Parigi
(44.7833°N, 10.5167°E)
Time: 23:37:07
(UTC+00:00)

Daily predictions for brighter satellites

Satellite Brightness Start Highest point End
(mag) Time Altitude Azimuth Time Altitude Azimuth Time Altitude Azimuth
FengYun 1-2 T 4.4 16:02:42 10° SE 16:08:09 55° ENE 16:13:35 10° N
NOAA 6 4.3 16:06:46 10° SE 16:11:41 47° ENE 16:16:36 10° N
CZ-4B R/B 4.3 16:08:38 10° ESE 16:12:47 23° ENE 16:16:54 10° N
Cosmos 2151 4.2 16:09:13 10° NNW 16:13:22 48° W 16:17:28 10° SSW
Cosmos 1354 Rocket 4.1 16:08:02 10° NNW 16:13:24 83° ENE 16:18:44 10° SSE
CORIOLIS 4.5 16:08:43 10° SE 16:13:46 44° ENE 16:18:54 10° N
CZ-4B R/B 3.0 16:14:10 10° SSE 16:18:27 85° E 16:22:34 10° NNW
Cosmos 1869 4.4 16:21:36 10° SSW 16:25:23 46° WNW 16:29:10 10° N
Iridium 2 3.7 16:22:27 10° N 16:26:10 55° E 16:29:51 10° SSE
Cosmos 1766 Rocket 3.5 16:22:59 10° N 16:27:19 68° E 16:31:39 10° SSE
USA 305 2.9 16:25:21 10° SW 16:29:34 83° SE 16:33:32 12° NE
Cosmos 1606 3.1 16:27:04 10° SSE 16:30:35 40° E 16:34:08 10° NNE
SL-08 R/B 4.1 16:27:11 10° N 16:31:51 54° WNW 16:36:25 10° SSW
ARGOS 4.1 16:28:40 10° ESE 16:33:01 25° ENE 16:37:22 10° N
Okean O Rocket 2.8 16:32:22 10° ESE 16:35:47 22° ENE 16:39:13 10° NNE
USA 276 3.3 16:33:20 10° WNW 16:36:10 30° N 16:38:19 15° NE
COSMO-SKYMED 1 3.7 16:34:51 10° NE 16:38:20 23° E 16:41:48 10° SSE
Cosmos 1464 Rocket 4.1 16:32:50 10° S 16:39:04 63° E 16:45:22 10° NNE
Aureole 3 4.2 16:36:54 10° S 16:41:55 81° E 16:48:20 10° N
ERBS 3.0 16:42:29 10° SSW 16:45:26 35° SE 16:47:12 19° ENE
Meteor 2-19 Rocket 4.4 16:42:30 10° N 16:48:32 62° ENE 16:54:32 10° SSE
Cosmos 2221 2.5 16:44:27 10° S 16:48:36 58° E 16:52:49 10° NNE
NOSS 2-1 (E) 2.9 16:46:22 10° SW 16:49:41 78° NW 16:52:18 15° NE
ISS -2.6 16:49:44 10° W 16:52:52 33° NNW 16:54:50 18° NE
USA 267 4.1 16:47:44 11° NE 16:53:30 40° NNW 16:59:28 10° W
CZ-2C R/B 3.1 16:49:30 10° NNE 16:54:21 36° E 16:59:06 10° SSE
Cosmos 1340 Rocket 3.3 16:52:59 10° N 16:56:46 37° ENE 17:00:32 10° SE
Cosmos 1933 4.5 16:53:36 10° SE 16:56:48 23° E 16:57:32 22° ENE
deb Chang Zheng 4 3.9 16:52:48 10° SE 16:56:49 41° ENE 17:00:53 10° N
deb Kosmos-1763 4.0 16:53:31 10° S 16:56:51 54° ESE 16:59:07 19° NE
YAOGAN 1 4.3 16:58:27 15° NE 16:58:27 15° NE 16:59:53 10° NNE
AQUARIUS 4.3 16:53:05 10° S 16:57:33 78° WSW 17:02:05 10° NNW
Cosmos 1271 Rocket 3.6 16:56:21 10° SSW 17:00:09 51° WNW 17:04:02 10° N
Nadezhda 4 Rocket 4.0 16:54:58 10° N 17:01:16 69° E 17:07:34 10° SSE
USA 306 3.1 16:57:05 10° WSW 17:01:18 63° NNW 17:04:02 21° NE
Lacrosse 5 rocket 3.4 16:59:36 10° NW 17:01:58 15° N 17:03:54 12° NNE
USA 229 DEB 4.4 16:55:41 10° NNW 17:02:20 37° NE 17:07:26 18° E
USA 229 4.4 16:55:47 10° NNW 17:02:26 37° NE 17:07:28 18° E
Landsat 5 4.3 17:02:19 21° NE 17:04:22 31° E 17:08:02 10° SSE
SMAP 3.8 17:00:04 10° S 17:04:38 57° W 17:09:14 10° NNW
CZ-4B DEB 4.4 17:02:20 10° S 17:07:52 76° WSW 17:13:24 10° NNW
Cosmos 1092 Rocket 4.2 17:02:04 10° N 17:08:11 47° ENE 17:14:15 10° SSE
ATLAS 2AS CENTAUR R/B 4.3 17:01:53 10° W 17:08:37 30° NNW 17:15:09 10° NNE
Cosmos 1408 Rocket 3.5 17:04:45 10° N 17:09:06 88° ENE 17:13:27 10° S
Cosmos 1743 Rocket 3.6 17:06:50 10° N 17:11:03 49° ENE 17:15:14 10° SSE
H-2A R/B 2.0 17:07:00 10° SSE 17:12:18 82° ENE 17:17:29 10° NNW
Cosmos 1697 Rocket 3.5 17:08:01 10° N 17:12:53 29° NE 17:14:22 26° ENE
Cosmos 1980 Rocket 3.7 17:09:13 10° N 17:12:43 18° NE 17:12:43 18° NE
COSMOS 2406 4.3 17:10:32 10° SSE 17:14:57 23° E 17:15:10 23° E
PAYLOAD B 4.3 17:09:27 10° SSE 17:15:04 84° WSW 17:20:43 10° NNW
USA 307 3.3 17:12:13 10° WSW 17:16:25 56° NNW 17:18:33 27° NE
SJ-11-01 4.3 17:12:58 10° SSE 17:17:36 55° ENE 17:22:15 10° N
Cosmos 2082 Rocket 4.2 17:16:08 10° SE 17:16:18 10° SE 17:16:18 10° SE
Cosmos 44 3.4 17:14:28 10° NNW 17:19:09 46° NE 17:20:56 30° E
Cosmos 2034 Rocket 3.9 17:14:16 10° S 17:20:27 89° E 17:26:38 10° N
ATLAS CENTAUR R/B 2.8 17:16:55 10° WSW 17:20:42 35° NW 17:23:55 15° NNE
Lacrosse 5 2.6 17:19:24 10° NW 17:24:23 53° SW 17:29:19 10° SSE
NOSS 3-1 (A) 4.2 17:18:46 10° NNW 17:25:56 51° NE 17:31:39 21° ESE
SKYMED 2 3.4 17:22:52 14° NNE 17:26:37 74° ESE 17:30:56 10° S
Cosmos 1428 Rocket 4.5 17:20:42 10° N 17:26:42 55° ENE 17:32:41 10° SSE
Cosmos 1809 Rocket 4.4 17:23:11 10° N 17:29:13 58° ENE 17:35:12 10° SSE
Cosmos 1898 Rocket 3.8 17:24:40 10° N 17:29:42 43° ENE 17:31:16 34° ESE
NOSS 3-1 (C) 4.0 17:23:31 10° NW 17:31:00 77° NE 17:39:47 10° SE
MOS 1-B Rocket 3.9 17:25:50 10° NNE 17:31:32 89° WNW 17:37:47 10° SSW
Cosmos 1656 3.5 17:26:47 10° NNW 17:32:20 72° ENE 17:37:53 10° SSE
GEOS 3 Rocket 3.6 17:28:14 10° SE 17:33:30 83° SW 17:38:45 10° NW
CZ-2D R/B 4.4 17:30:02 10° S 17:33:44 45° W 17:37:26 10° NNW
Meteor 1-20 Rocket 4.2 17:31:06 10° N 17:36:55 82° E 17:42:46 10° SSE
SL-08 RB Rocket 3.7 17:34:00 10° SSE 17:38:35 60° ENE 17:43:11 10° N
USA 308 3.7 17:34:32 10° W 17:38:36 43° NNW 17:39:46 34° NNE
Cosmos 468 Rocket 3.9 17:36:11 10° S 17:41:13 60° ESE 17:42:42 42° NE
Cosmos 1500 Rocket 3.8 17:38:11 10° NNW 17:42:38 72° W 17:47:02 10° S
Cosmos 2279 Rocket 4.3 17:37:09 10° SSE 17:42:53 40° E 17:43:29 40° ENE
SJ 16-02 3.3 17:41:18 10° NW 17:45:09 30° W 17:48:59 10° SSW
DMSP B5D2-2 4.5 17:48:33 42° ESE 17:48:33 42° ESE 17:52:46 10° S
Cosmos 2360 4.4 17:42:36 10° NNW 17:48:09 47° ENE 17:48:27 47° ENE
Cosmos 1634 Rocket 3.9 17:42:35 10° S 17:48:51 71° E 17:55:10 10° NNE
CZ-4B R/B 3.8 17:47:32 10° S 17:52:57 58° WSW 17:58:17 10° NNW
Cosmos 1805 Rocket 3.4 17:48:38 10° N 17:52:59 87° ENE 17:57:19 10° S
CZ-4C R/B 3.7 17:49:47 10° NNW 17:55:50 31° NE 17:56:09 31° NE
CZ-4 R/B 3.8 18:00:41 13° N 18:00:41 13° N 18:01:10 10° N
Cosmos 1833 Rocket 2.6 17:52:36 10° SSW 17:58:08 65° ESE 17:58:47 59° ENE
ATLAS 5 CENTAUR R/B 3.6 17:53:10 10° NW 17:58:54 27° N 17:58:54 27° N
Cosmos 540 Rocket 4.0 17:58:48 10° S 18:02:28 44° SSE 18:02:28 44° SSE
Cosmos 2026 Rocket 4.0 18:03:17 10° N 18:09:29 76° W 18:15:33 10° S
USA 305 4.3 18:06:03 10° W 18:09:32 30° NNW 18:09:32 30° NNW
Okean O Rocket 2.9 18:07:42 10° S 18:11:53 40° W 18:16:06 10° NNW
ARGOS 4.0 18:07:43 10° S 18:12:58 50° W 18:18:15 10° NNW
COSMO-SKYMED 1 4.1 18:11:30 15° N 18:14:34 35° WNW 18:18:31 10° SW
Spot 2 4.5 18:11:28 19° S 18:15:07 79° WSW 18:20:18 10° NNW
ATLAS CENTAUR R/B 2.6 18:09:53 10° SW 18:19:01 76° NW 18:19:17 74° NNW
Cosmos 1937 Rocket 3.9 18:17:02 10° NNW 18:21:06 53° NNW 18:21:06 53° NNW
Meteor 2-16 Rocket 4.3 18:19:24 10° N 18:25:15 80° NNE 18:25:15 80° NNE
Cosmos 1763 Rocket 4.1 18:23:06 10° SW 18:28:02 51° WNW 18:28:45 47° NW
ISS -0.6 18:27:27 10° NW 18:27:49 12° NW 18:27:49 12° NW
CZ-2C R/B 4.2 18:29:58 10° N 18:34:33 31° WNW 18:39:03 10° SW
USA 267 4.3 18:35:05 30° N 18:35:30 30° N 18:41:01 10° WNW
USA 229 DEB 4.1 18:46:30 10° NW 18:53:50 68° WSW 18:54:57 61° SSW
USA 229 4.1 18:46:35 10° NW 18:53:56 69° WSW 18:54:59 62° SSW
Cosmos 1697 Rocket 3.6 18:51:41 10° NW 18:56:10 44° W 18:56:10 44° W
Cosmos 1980 Rocket 3.8 18:52:09 10° NNW 18:54:31 26° NNW 18:54:31 26° NNW
COSMOS 2455 4.2 18:51:53 10° SSW 18:54:37 29° SSW 18:54:37 29° SSW
COSMOS 2406 4.2 18:53:09 10° SW 18:57:17 44° WSW 18:57:17 44° WSW
Cosmos 2082 Rocket 4.2 18:56:38 10° SSW 18:58:13 19° SSW 18:58:13 19° SSW
CZ-4C R/B 4.2 19:37:55 10° NW 19:41:21 33° NW 19:41:21 33° NW
